Greer, SC

8:29 AM EDT on August 25, 2016 (GMT -0400)
Greenville-Spartanburg International

Weather History for KGSP - August, 2013

Change the Weather History Date:

Wednesday, August 7, 2013

  Actual Average Record
Temperature  
Mean Temperature 75 °F 80 °F  
Max Temperature 78 °F 90 °F 101 °F (1888)
Min Temperature 71 °F 69 °F 56 °F (2004)
Degree Days  
Heating Degree Days 0 0  
Month to date heating degree days 0 0  
Since 1 June heating degree days 0 2  
Since 1 July heating degree days 0 0  
Cooling Degree Days 10 14  
Month to date cooling degree days 91 104  
Year to date cooling degree days 989 1116  
Since 1 June cooling degree days 827 915  
Growing Degree Days 24 (Base 50)    
Moisture  
Dew Point 72 °F    
Average Humidity 94    
Maximum Humidity 100    
Minimum Humidity 87    
Precipitation  
Precipitation 0.56 in 0.15 in 2.51 in (1972)
Month to date precipitation 2.59 1.08  
Year to date precipitation 49.63 29.11  
Snow  
Snow 0.00 in 0.00 in 0.00 in ()
Month to date snowfall 0.0 0.0  
Since 1 June snowfall 0.0 0.0  
Since 1 July snowfall 0.0 0.0  
Snow Depth 0.00 in    
Sea Level Pressure  
Sea Level Pressure 30.04 in    
Wind  
Wind Speed 4 mph (SSE)    
Max Wind Speed 13 mph    
Max Gust Speed 17 mph    
Visibility 6 miles    
Events Rain    
T = Trace of Precipitation, MM = Missing Value Source: NWS Daily Summary

Daily Weather History Graph

Daily Weather History Graph

Search for Another Location

Airport or City:

Trip Planner

Search our weather history database for the weather conditions in past years. The results will help you decide how hot, cold, wet, or windy it might be!

Date:

Astronomy

Aug. 07, 2013 Rise Set
Actual Time 6:43 AM EDT 8:25 PM EDT
Civil Twilight 6:15 AM EDT 8:52 PM EDT
Nautical Twilight 5:42 AM EDT 9:25 PM EDT
Astronomical Twilight 5:08 AM EDT 10:00 PM EDT
Moon 7:26 AM EDT (8/7) 8:37 PM EDT (8/7)
Length of Visible Light 14h 36m
Length of Day
13h 42m
New Moon, 1% of the Moon is Illuminated
Aug 7
New Moon
Aug 14
First Quarter
Aug 20
Full
Aug 28
Last Quarter
Sep 5
New

Hourly Weather History & Observations

Time (EDT) Temp. Dew Point Humidity Pressure Visibility Wind Dir Wind Speed Gust Speed Precip Events Conditions
12:14 AM 71.6 °F 71.6 °F 100% 30.05 in 8.0 mi SE 5.8 mph - N/A   Overcast
12:53 AM 72.0 °F 70.0 °F 93% 30.02 in 8.0 mi Calm Calm - N/A   Overcast
1:53 AM 72.0 °F 71.1 °F 97% 30.02 in 7.0 mi SSE 3.5 mph - N/A   Overcast
2:44 AM 71.6 °F 71.6 °F 100% 30.05 in 5.0 mi SSE 3.5 mph - N/A   Overcast
2:53 AM 72.0 °F 71.1 °F 97% 30.01 in 5.0 mi SSE 4.6 mph - N/A   Overcast
3:53 AM 72.0 °F 70.0 °F 93% 30.01 in 5.0 mi SSE 5.8 mph - N/A   Overcast
4:53 AM 72.0 °F 70.0 °F 93% 30.01 in 5.0 mi SSE 4.6 mph - N/A   Overcast
5:53 AM 71.1 °F 70.0 °F 96% 30.02 in 3.0 mi SSE 4.6 mph - N/A   Overcast
6:01 AM 71.6 °F 69.8 °F 94% 30.06 in 2.0 mi South 4.6 mph - N/A   Overcast
6:53 AM 72.0 °F 70.0 °F 93% 30.03 in 3.0 mi SSE 4.6 mph - N/A   Overcast
7:53 AM 71.1 °F 70.0 °F 96% 30.04 in 2.5 mi SE 5.8 mph - N/A   Overcast
8:17 AM 71.6 °F 69.8 °F 94% 30.08 in 3.0 mi SSE 5.8 mph - N/A   Overcast
8:53 AM 72.0 °F 70.0 °F 93% 30.05 in 5.0 mi SSE 8.1 mph - N/A   Overcast
9:05 AM 73.4 °F 71.6 °F 94% 30.08 in 6.0 mi SSE 8.1 mph - N/A   Overcast
9:53 AM 73.9 °F 71.1 °F 91% 30.05 in 9.0 mi SSE 8.1 mph - N/A   Overcast
10:53 AM 75.0 °F 71.1 °F 87% 30.06 in 10.0 mi South 11.5 mph - 0.00 in Rain Light Rain
11:53 AM 75.0 °F 72.0 °F 90% 30.07 in 7.0 mi South 5.8 mph - 0.01 in Rain Light Rain
12:14 PM 75.2 °F 73.4 °F 94% 30.10 in 10.0 mi South 5.8 mph - 0.01 in Rain Light Rain
12:31 PM 75.2 °F 73.4 °F 94% 30.10 in 7.0 mi SE 4.6 mph - 0.01 in Rain Light Rain
12:53 PM 75.9 °F 73.0 °F 91% 30.07 in 7.0 mi SSE 4.6 mph - 0.01 in Rain Light Rain
1:41 PM 75.2 °F 73.4 °F 94% 30.09 in 7.0 mi ESE 3.5 mph - 0.02 in Rain Light Rain
1:53 PM 75.9 °F 73.0 °F 91% 30.06 in 6.0 mi ESE 3.5 mph - 0.03 in Rain Light Rain
2:28 PM 77.0 °F 73.4 °F 89% 30.08 in 10.0 mi East 3.5 mph - 0.01 in Rain Light Rain
2:53 PM 77.0 °F 73.0 °F 88% 30.04 in 2.5 mi NE 3.5 mph - 0.03 in Rain Heavy Rain
2:58 PM 75.2 °F 71.6 °F 89% 30.07 in 1.2 mi NNE 3.5 mph - 0.02 in Rain Heavy Rain
3:53 PM 75.9 °F 73.0 °F 91% 30.02 in 2.5 mi Calm Calm - 0.14 in Rain Light Rain
4:06 PM 75.2 °F 73.4 °F 94% 30.05 in 7.0 mi Calm Calm - 0.00 in Rain Light Rain
4:28 PM 78.8 °F 73.4 °F 83% 30.05 in 8.0 mi Calm Calm - 0.00 in   Overcast
4:53 PM 78.1 °F 73.0 °F 84% 30.02 in 10.0 mi Calm Calm - 0.00 in   Overcast
5:53 PM 77.0 °F 75.0 °F 94% 30.01 in 4.0 mi Calm Calm - 0.00 in Rain Light Rain
6:00 PM 77.0 °F 73.4 °F 89% 30.04 in 4.0 mi Calm Calm - 0.00 in Rain Light Rain
6:15 PM 77.0 °F 73.4 °F 89% 30.04 in 10.0 mi Calm Calm - 0.00 in   Overcast
6:53 PM 78.1 °F 73.9 °F 87% 30.00 in 10.0 mi North 3.5 mph - 0.00 in   Overcast
7:16 PM 73.4 °F 71.6 °F 94% 30.03 in 2.0 mi SSW 6.9 mph - 0.11 in Rain Heavy Rain
7:24 PM 73.4 °F 73.4 °F 100% 30.03 in 2.0 mi Variable 3.5 mph - 0.16 in Rain Rain
7:31 PM 75.2 °F 73.4 °F 94% 30.03 in 6.0 mi Calm Calm - 0.17 in Rain Light Rain
7:53 PM 72.0 °F 71.1 °F 97% 30.01 in 6.0 mi NW 3.5 mph - 0.17 in   Overcast
8:13 PM 73.4 °F 71.6 °F 94% 30.05 in 6.0 mi SE 9.2 mph 17.3 mph N/A   Overcast
8:25 PM 73.4 °F 71.6 °F 94% 30.05 in 2.5 mi South 11.5 mph - 0.02 in Rain Rain
8:29 PM 71.6 °F 71.6 °F 100% 30.05 in 1.8 mi South 12.7 mph - 0.08 in Rain Heavy Rain
8:53 PM 72.0 °F 71.1 °F 97% 30.01 in 4.0 mi SSE 6.9 mph - 0.16 in Rain Light Rain
9:03 PM 71.6 °F 71.6 °F 100% 30.04 in 5.0 mi SE 4.6 mph - 0.01 in Rain Light Rain
9:47 PM 71.6 °F 71.6 °F 100% 30.06 in 2.5 mi Calm Calm - 0.01 in   Mostly Cloudy
9:53 PM 71.1 °F 71.1 °F 100% 30.03 in 5.0 mi Calm Calm - 0.01 in   Overcast
10:53 PM 72.0 °F 71.1 °F 97% 30.03 in 8.0 mi Calm Calm - N/A   Mostly Cloudy
11:53 PM 72.0 °F 71.1 °F 97% 30.03 in 4.0 mi Calm Calm - N/A   Overcast